Weather History for KMML - November, 2013

Change the Weather History Date:

Thursday, November 21, 2013

  Actual Average Record
Temperature  
Mean Temperature 22 °F -  
Max Temperature 28 °F - - ()
Min Temperature 15 °F - - ()
Degree Days  
Heating Degree Days 44    
Moisture  
Dew Point 11 °F    
Average Humidity 66    
Maximum Humidity 80    
Minimum Humidity 58    
Precipitation  
Precipitation 0.00 in - - ()
Sea Level Pressure  
Sea Level Pressure 30.35 in    
Wind  
Wind Speed 22 mph (NNW)    
Max Wind Speed 29 mph    
Max Gust Speed 39 mph    
Visibility 9 miles    
Events      
T = Trace of Precipitation, MM = Missing Value Source: NWS Daily Summary

Daily Weather History Graph

Daily Weather History Graph

Search for Another Location

Airport or City:

Trip Planner

Search our weather history database for the weather conditions in past years. The results will help you decide how hot, cold, wet, or windy it might be!

Date:

Astronomy

Nov. 21, 2013 Rise Set
Actual Time 7:27 AM CST 4:50 PM CST
Civil Twilight 6:55 AM CST 5:22 PM CST
Nautical Twilight 6:20 AM CST 5:58 PM CST
Astronomical Twilight 5:45 AM CST 6:32 PM CST
Moon 8:29 PM CST (11/21) 10:33 AM CST (11/21)
Length of Visible Light 10h 26m
Length of Day
9h 22m
Waning Gibbous, 85% of the Moon is Illuminated
Nov 21
Waning Gibbous
Nov 25
Last Quarter
Dec 2
New
Dec 9
First Quarter
Dec 17
Full

Hourly Weather History & Observations

Time (CST) Temp. Windchill Dew Point Humidity Pressure Visibility Wind Dir Wind Speed Gust Speed Precip Events Conditions
12:15 AM 28.4 °F 14.7 °F 21.2 °F 74% 30.05 in 10.0 mi NNW 21.9 mph 29.9 mph N/A   Overcast
12:35 AM 28.4 °F 15.4 °F 21.2 °F 74% 30.06 in 10.0 mi NNW 19.6 mph 25.3 mph N/A   Overcast
12:55 AM 28.4 °F 15.1 °F 21.2 °F 74% 30.06 in 10.0 mi NNW 20.7 mph - N/A   Overcast
1:15 AM 28.4 °F 15.4 °F 19.4 °F 69% 30.08 in 10.0 mi NNW 19.6 mph 24.2 mph N/A   Overcast
1:35 AM 26.6 °F 14.3 °F 19.4 °F 74% 30.10 in 10.0 mi NNW 16.1 mph 26.5 mph N/A   Overcast
1:55 AM 26.6 °F 12.7 °F 19.4 °F 74% 30.11 in 10.0 mi NNW 20.7 mph - N/A   Overcast
2:15 AM 26.6 °F 13.1 °F 19.4 °F 74% 30.12 in 10.0 mi NNW 19.6 mph 26.5 mph N/A   Overcast
2:35 AM 26.6 °F 14.7 °F 19.4 °F 74% 30.14 in 10.0 mi NNW 15.0 mph 25.3 mph N/A   Overcast
2:55 AM 24.8 °F 9.6 °F 19.4 °F 80% 30.14 in 10.0 mi NNW 23.0 mph 26.5 mph N/A   Overcast
3:15 AM 24.8 °F 9.3 °F 17.6 °F 74% 30.15 in 9.0 mi NNW 24.2 mph 28.8 mph N/A   Overcast
3:35 AM 24.8 °F 9.3 °F 17.6 °F 74% 30.15 in 10.0 mi NNW 24.2 mph 29.9 mph N/A   Overcast
3:55 AM 23.0 °F 8.0 °F 15.8 °F 74% 30.16 in 10.0 mi NNW 20.7 mph 29.9 mph N/A   Overcast
4:15 AM 23.0 °F 8.3 °F 14.0 °F 68% 30.17 in 10.0 mi NNW 19.6 mph 27.6 mph N/A   Overcast
4:35 AM 23.0 °F 6.3 °F 14.0 °F 68% 30.18 in 10.0 mi NNW 26.5 mph 32.2 mph N/A   Overcast
4:55 AM 21.2 °F 4.5 °F 12.2 °F 68% 30.18 in 10.0 mi NNW 24.2 mph 32.2 mph N/A   Overcast
5:15 AM 21.2 °F 4.5 °F 12.2 °F 68% 30.20 in 10.0 mi NNW 24.2 mph 31.1 mph N/A   Overcast
5:35 AM 21.2 °F 4.2 °F 12.2 °F 68% 30.22 in 10.0 mi NNW 25.3 mph 31.1 mph N/A   Overcast
5:55 AM 21.2 °F 4.5 °F 10.4 °F 63% 30.23 in 10.0 mi NNW 24.2 mph 33.4 mph N/A   Overcast
6:15 AM 21.2 °F 3.9 °F 12.2 °F 68% 30.24 in 10.0 mi NNW 26.5 mph 32.2 mph N/A   Overcast
6:35 AM 21.2 °F 3.9 °F 10.4 °F 63% 30.26 in 10.0 mi NNW 26.5 mph 33.4 mph N/A   Overcast
6:55 AM 21.2 °F 4.5 °F 10.4 °F 63% 30.27 in 10.0 mi NNW 24.2 mph 27.6 mph N/A   Overcast
7:15 AM 19.4 °F 2.8 °F 10.4 °F 68% 30.29 in 10.0 mi NNW 21.9 mph 27.6 mph N/A   Overcast
7:35 AM 19.4 °F 2.1 °F 10.4 °F 68% 30.30 in 10.0 mi NNW 24.2 mph 27.6 mph N/A   Overcast
7:55 AM 19.4 °F 2.1 °F 10.4 °F 68% 30.31 in 10.0 mi NNW 24.2 mph 34.5 mph N/A   Overcast
8:15 AM 19.4 °F 1.4 °F 8.6 °F 63% 30.30 in 10.0 mi North 26.5 mph 32.2 mph N/A   Scattered Clouds
8:35 AM 19.4 °F 1.1 °F 8.6 °F 63% 30.30 in 10.0 mi NNW 27.6 mph 34.5 mph N/A   Scattered Clouds
8:55 AM 19.4 °F 1.4 °F 8.6 °F 63% 30.30 in 10.0 mi NNW 26.5 mph 33.4 mph N/A   Mostly Cloudy
9:15 AM 19.4 °F 0.8 °F 8.6 °F 63% 30.30 in 10.0 mi NNW 28.8 mph 34.5 mph N/A   Partly Cloudy
9:35 AM 19.4 °F 1.1 °F 8.6 °F 63% 30.31 in 10.0 mi NNW 27.6 mph 39.1 mph N/A   Partly Cloudy
9:55 AM 19.4 °F 0.8 °F 8.6 °F 63% 30.33 in 10.0 mi NNW 28.8 mph 34.5 mph N/A   Partly Cloudy
10:15 AM 19.4 °F 1.4 °F 8.6 °F 63% 30.35 in 10.0 mi NNW 26.5 mph 34.5 mph N/A   Scattered Clouds
10:35 AM 21.2 °F 3.9 °F 10.4 °F 63% 30.37 in 10.0 mi NNW 26.5 mph 31.1 mph N/A   Overcast
10:55 AM 21.2 °F 4.5 °F 10.4 °F 63% 30.36 in 10.0 mi North 24.2 mph 29.9 mph N/A   Overcast
11:15 AM 21.2 °F 3.9 °F 10.4 °F 63% 30.37 in 10.0 mi North 26.5 mph 33.4 mph N/A   Mostly Cloudy
11:35 AM 21.2 °F 4.2 °F 10.4 °F 63% 30.36 in 10.0 mi North 25.3 mph 29.9 mph N/A   Mostly Cloudy
11:55 AM 21.2 °F 4.5 °F 10.4 °F 63% 30.36 in 10.0 mi NNW 24.2 mph - N/A   Overcast
12:15 PM 21.2 °F 3.9 °F 10.4 °F 63% 30.35 in 10.0 mi North 26.5 mph 33.4 mph N/A   Overcast
12:35 PM 21.2 °F 3.5 °F 10.4 °F 63% 30.36 in 10.0 mi NNW 27.6 mph 34.5 mph N/A   Mostly Cloudy
12:55 PM 21.2 °F 4.9 °F 10.4 °F 63% 30.37 in 10.0 mi NNW 23.0 mph 29.9 mph N/A   Mostly Cloudy
1:15 PM 21.2 °F 3.5 °F 10.4 °F 63% 30.37 in 5.0 mi North 27.6 mph 31.1 mph N/A   Mostly Cloudy
1:35 PM 21.2 °F 3.9 °F 10.4 °F 63% 30.37 in 9.0 mi NNW 26.5 mph 33.4 mph N/A   Mostly Cloudy
1:55 PM 21.2 °F 5.6 °F 10.4 °F 63% 30.38 in 3.0 mi North 20.7 mph 34.5 mph N/A   Mostly Cloudy
2:15 PM 21.2 °F 5.6 °F 12.2 °F 68% 30.39 in 4.0 mi NNW 20.7 mph 28.8 mph N/A   Overcast
2:35 PM 21.2 °F 3.5 °F 10.4 °F 63% 30.39 in 9.0 mi NNW 27.6 mph 32.2 mph N/A   Overcast
2:55 PM 21.2 °F 5.2 °F 10.4 °F 63% 30.40 in 8.0 mi North 21.9 mph 28.8 mph N/A   Overcast
3:15 PM 21.2 °F 4.9 °F 10.4 °F 63% 30.41 in 7.0 mi NNW 23.0 mph 31.1 mph N/A   Scattered Clouds
3:35 PM 19.4 °F 2.8 °F 8.6 °F 63% 30.42 in 9.0 mi North 21.9 mph 32.2 mph N/A   Mostly Cloudy
3:55 PM 19.4 °F 2.5 °F 8.6 °F 63% 30.43 in 10.0 mi NNW 23.0 mph 31.1 mph N/A   Mostly Cloudy
4:15 PM 19.4 °F 3.2 °F 10.4 °F 68% 30.44 in 10.0 mi NNW 20.7 mph 26.5 mph N/A   Clear
4:35 PM 19.4 °F 2.8 °F 8.6 °F 63% 30.45 in 5.0 mi NNW 21.9 mph 27.6 mph N/A   Clear
4:55 PM 19.4 °F 2.5 °F 10.4 °F 68% 30.46 in 5.0 mi NNW 23.0 mph 29.9 mph N/A   Mostly Cloudy
5:15 PM 19.4 °F 2.1 °F 8.6 °F 63% 30.47 in 3.0 mi North 24.2 mph 31.1 mph N/A   Mostly Cloudy
5:35 PM 19.4 °F 2.5 °F 8.6 °F 63% 30.48 in 8.0 mi North 23.0 mph 29.9 mph N/A   Overcast
5:55 PM 19.4 °F 2.5 °F 8.6 °F 63% 30.48 in 7.0 mi North 23.0 mph 29.9 mph N/A   Mostly Cloudy
6:15 PM 19.4 °F 3.2 °F 8.6 °F 63% 30.48 in 10.0 mi North 20.7 mph 27.6 mph N/A   Scattered Clouds
6:35 PM 19.4 °F 2.1 °F 6.8 °F 58% 30.49 in 10.0 mi NNW 24.2 mph 31.1 mph N/A   Clear
6:55 PM 19.4 °F 2.8 °F 6.8 °F 58% 30.49 in 10.0 mi NNW 21.9 mph 25.3 mph N/A   Clear
7:15 PM 17.6 °F 0.5 °F 8.6 °F 68% 30.50 in 10.0 mi NNW 21.9 mph - N/A   Clear
7:35 PM 17.6 °F 1.7 °F 6.8 °F 63% 30.51 in 10.0 mi North 18.4 mph 25.3 mph N/A   Clear
7:55 PM 17.6 °F 1.3 °F 6.8 °F 63% 30.52 in 10.0 mi NNW 19.6 mph 27.6 mph N/A   Clear
8:15 PM 17.6 °F 0.5 °F 6.8 °F 63% 30.52 in 10.0 mi NNW 21.9 mph 27.6 mph N/A   Clear
8:35 PM 17.6 °F 0.5 °F 6.8 °F 63% 30.53 in 10.0 mi NNW 21.9 mph 26.5 mph N/A   Clear
8:55 PM 17.6 °F -0.3 °F 6.8 °F 63% 30.53 in 10.0 mi NNW 24.2 mph - N/A   Clear
9:15 PM 17.6 °F 1.3 °F 5.0 °F 58% 30.54 in 10.0 mi NNW 19.6 mph 27.6 mph N/A   Clear
9:35 PM 17.6 °F 0.1 °F 5.0 °F 58% 30.55 in 10.0 mi NNW 23.0 mph 27.6 mph N/A   Clear
9:55 PM 17.6 °F 0.9 °F 6.8 °F 63% 30.56 in 10.0 mi NNW 20.7 mph 24.2 mph N/A   Clear
10:15 PM 17.6 °F 0.9 °F 5.0 °F 58% 30.57 in 10.0 mi NNW 20.7 mph - N/A   Clear
10:35 PM 17.6 °F 3.7 °F 6.8 °F 63% 30.57 in 10.0 mi NNW 13.8 mph - N/A   Clear
10:55 PM 17.6 °F 2.2 °F 6.8 °F 63% 30.57 in 10.0 mi NNW 17.3 mph 25.3 mph N/A   Mostly Cloudy
11:15 PM 15.8 °F 0.3 °F 5.0 °F 62% 30.57 in 10.0 mi NNW 16.1 mph - N/A   Partly Cloudy
11:35 PM 15.8 °F 0.3 °F 6.8 °F 68% 30.58 in 10.0 mi NNW 16.1 mph - N/A   Partly Cloudy
11:55 PM 15.8 °F 0.3 °F 6.8 °F 68% 30.58 in 10.0 mi NNW 16.1 mph - N/A   Clear